Location: Black Mountain Trail
(44.0548°N, 71.9106°W)
Time: 23:36:21
(UTC+00:00)

Daily predictions for brighter satellites

Satellite Brightness Start Highest point End
(mag) Time Altitude Azimuth Time Altitude Azimuth Time Altitude Azimuth
CENTAUR R/B 3.5 21:32:22 10° WSW 21:37:42 40° NW 21:44:23 10° NNE
Cosmos 1867 4.5 21:33:42 10° NNW 21:38:21 28° NE 21:43:00 10° E
Lacrosse 4 Rocket 3.4 21:36:29 10° WSW 21:39:43 22° NW 21:42:56 10° N
Cosmos 1315 Rocket 3.6 21:37:49 10° SSW 21:41:31 50° WNW 21:45:16 10° N
Cosmos 1092 Rocket 4.4 21:36:25 10° NNW 21:42:33 70° W 21:48:37 10° S
Cosmos 773 Rocket 4.0 21:39:20 10° NNW 21:44:31 60° ENE 21:49:41 10° SSE
Cosmos 1743 2.9 21:41:50 10° N 21:44:50 34° ENE 21:47:50 10° SE
Cosmos 2297 Rocket 2.4 21:40:55 10° NNW 21:46:27 51° ENE 21:51:56 10° SE
Cosmos 1758 Rocket 3.5 21:47:07 10° N 21:51:26 68° E 21:55:40 10° SSE
Cosmos 2098 Rocket 3.0 21:47:36 10° S 21:51:28 60° E 21:56:06 10° NNE
BREEZE-M DEB (TANK) 3.7 21:49:32 10° WNW 21:52:15 41° N 21:59:19 10° ENE
Intercosmos 24 3.6 21:49:51 10° N 21:53:39 88° E 21:57:13 10° S
Cosmos 2151 3.3 21:50:01 10° N 21:53:58 41° ENE 21:57:54 10° SSE
ARIANE 5 R/B 2.7 21:51:28 10° SE 21:56:17 47° ENE 22:01:11 10° N
Cosmos 1607 4.0 21:56:30 10° NNW 22:02:41 62° NE 22:08:54 10° SE
USA 215 4.4 21:57:39 10° NE 22:03:05 29° N 22:08:28 10° WNW
CZ-4C R/B 3.1 21:57:08 10° NNW 22:03:58 56° NE 22:12:24 10° SE
Cosmos 2208 Rocket 4.0 22:00:14 10° NNW 22:05:26 89° WSW 22:10:37 10° SSE
IGS 5A 3.8 22:02:06 10° S 22:06:01 64° W 22:09:58 10° NNW
SPOT 1/Viking Rocket 4.3 22:02:38 10° SE 22:07:05 29° ENE 22:11:32 10° N
Cosmos 1980 Rocket 3.5 22:06:25 10° SSE 22:10:31 21° E 22:13:23 14° ENE
Cosmos 1933 3.6 22:08:03 10° SSE 22:11:38 39° E 22:15:14 10° NNE
BlueWalker 3 2.4 22:10:02 10° WNW 22:13:36 59° SW 22:17:09 10° SE
SJ-12 3.7 22:10:30 10° SSE 22:14:11 55° ENE 22:17:54 10° N
Meteor 1-28 Rocket 4.2 22:11:10 10° N 22:14:20 40° WNW 22:17:28 10° SW
Cosmos 2266 Rocket 3.9 22:08:21 10° N 22:14:28 65° E 22:20:28 10° SSE
Cosmos 1626 Rocket 4.3 22:10:20 10° NNW 22:14:35 56° W 22:18:46 10° S
Cosmos 1076 Rocket 4.5 22:13:35 10° NNE 22:17:10 25° ENE 22:20:44 10° SE
NOSS 2-3 (E) 4.1 22:14:45 10° S 22:18:02 30° ESE 22:19:50 19° ENE
AQUARIUS 4.2 22:13:53 10° SSE 22:18:11 55° ENE 22:22:30 10° N
Cosmos 2084 Rocket 3.6 22:14:42 10° NNW 22:18:48 48° NE 22:22:53 10° ESE
NOSS 2-3 (D) 4.2 22:16:36 10° S 22:19:52 29° ESE 22:21:33 20° ENE
MOS 1 Rocket 3.5 22:15:10 10° SSE 22:19:53 56° ENE 22:24:54 10° N
Cosmos 1606 Rocket 3.7 22:16:50 10° SSE 22:21:04 50° E 22:25:21 10° NNE
CORIOLIS 4.4 22:17:33 10° S 22:22:52 75° WSW 22:28:14 10° NNW
CZ-2D R/B 4.3 22:20:37 10° SE 22:24:14 28° ENE 22:27:48 10° N
Cosmos 2263 Rocket 3.0 22:19:25 10° N 22:24:17 28° NE 22:28:38 12° ESE
Cosmos 783 Rocket 4.5 22:20:32 10° NNW 22:25:49 64° ENE 22:31:03 10° SSE
SOZ 3.6 22:23:11 10° WSW 22:26:04 80° NNW 22:26:49 34° NE
GEOS 3 Rocket 4.3 22:23:00 10° NNE 22:28:12 53° NW 22:33:25 10° WSW
Lacrosse 5 rocket 3.4 22:26:49 10° NW 22:28:52 14° NNW 22:30:45 10° NNE
COSMO-SKYMED 1 3.5 22:28:14 22° ENE 22:29:18 25° E 22:32:41 10° SSE
Cosmos 1900 4.3 22:26:21 10° NNW 22:31:21 62° NE 22:36:15 10° SE
Resurs 1-3 4.4 22:27:50 10° SE 22:31:30 28° ENE 22:35:10 10° N
SL-16 R/B 3.7 22:26:30 10° N 22:32:16 41° WNW 22:37:58 10° SW
Thor Agena Rocket 4.5 22:28:11 10° S 22:33:16 52° W 22:38:20 10° NNW
Cosmos 1461 3.0 22:30:02 10° SW 22:33:53 65° NW 22:36:44 18° NNE
Cosmos 2227 Rocket 2.2 22:32:08 10° NNW 22:37:42 57° ENE 22:43:13 10° SE
SJ-6F 4.2 22:36:21 10° SSE 22:40:18 82° ENE 22:44:20 10° N
NOSS 3-2 (C) 3.4 22:35:31 10° SW 22:40:28 66° NW 22:45:17 15° NNE
Cosmos 1503 Rocket 4.3 22:36:10 10° SSW 22:41:23 68° WNW 22:46:36 10° NNE
Okean 1-7 Rocket 3.6 22:38:20 10° N 22:42:44 81° W 22:47:05 10° S
Cosmos 1726 Rocket 3.6 22:41:33 10° S 22:46:09 69° E 22:50:44 10° NNE
SL-19 R/B 4.5 22:43:58 10° SE 22:49:00 44° ENE 22:54:16 10° N
BREEZE-M DEB (TANK) 4.3 22:41:03 10° SSW 22:49:38 35° SE 22:51:40 25° E
Cosmos 1354 Rocket 4.0 22:44:29 10° SSW 22:49:46 82° WNW 22:54:33 13° NNE
Cosmos 1697 Rocket 2.7 22:45:42 10° SSW 22:51:18 84° WNW 22:55:57 16° NNE
USA 290 4.3 22:50:05 10° NW 22:52:58 30° WSW 22:55:51 10° SSW
SKYMED 2 3.4 22:51:14 17° NNE 22:54:34 72° ESE 22:58:53 10° S
Spot 4 Rocket 4.0 22:49:53 10° SSE 22:54:51 55° ENE 22:59:51 10° N
Meteor 2-20 4.4 22:51:55 10° S 22:58:01 68° E 23:04:08 10° NNE
ATLAS CENTAUR R/B 3.6 22:55:59 10° WNW 22:58:20 19° WSW 23:00:36 10° SSW
YAOGAN 1 2.5 22:55:24 10° SSE 22:59:33 56° ENE 23:03:44 10° N
IRAS Rocket 4.2 22:56:19 10° SE 23:01:38 54° ENE 23:06:58 10° N
EXPRESS MD2 3.6 22:59:09 10° SSW 23:01:13 36° SSE 23:01:13 36° SSE
Cosmos 1898 Rocket 3.9 22:59:03 10° S 23:03:48 39° ESE 23:04:01 39° E
NOAA 15 4.5 23:01:59 10° SSE 23:07:15 75° ENE 23:12:33 10° N
Gbstr 26 Del rocket 2.7 23:04:15 10° WSW 23:08:14 67° NNW 23:08:45 58° NNE
Meteor 2-10 4.0 23:06:48 10° N 23:12:08 63° ENE 23:17:37 10° SSE
Cosmos-2242 3.1 23:10:42 10° S 23:14:15 53° SE 23:14:15 53° SE
Cosmos 1953 Rocket 3.5 23:11:43 10° N 23:16:11 84° W 23:20:37 10° S
Cosmos 1655 Rocket 4.0 23:10:40 10° N 23:16:55 80° W 23:23:07 10° S
Meteor 2-20 Rocket 4.3 23:13:51 10° S 23:20:06 72° E 23:24:55 17° NNE
Cosmos 1867 4.1 23:16:56 10° NW 23:22:17 59° WSW 23:27:36 10° SSE
Cosmos 2082 4.3 23:18:22 10° NNW 23:22:44 39° NNE 23:22:44 39° NNE
Meteor 1-26 Rocket 4.0 23:18:34 10° S 23:23:57 68° E 23:25:18 49° NE
Helios 1A Rocket 4.3 23:26:11 23° S 23:26:11 23° S 23:27:35 10° SSW
Cosmos 372 Rocket 3.8 23:20:08 10° SSW 23:25:17 76° ESE 23:26:07 61° NE
Cosmos 1937 Rocket 4.2 23:20:37 10° S 23:24:07 36° SE 23:24:07 36° SE
Aureole 1 Rocket 3.1 23:23:47 10° SSW 23:27:58 88° ESE 23:28:37 67° NNE
Cosmos 2297 Rocket 4.4 23:25:36 10° NW 23:30:06 25° WSW 23:34:37 10° SSW
NOSS 2-3 (C) 4.1 23:31:20 10° SW 23:34:00 43° W 23:34:00 43° W
NOAA 6 3.9 23:35:09 10° SSE 23:40:16 85° WSW 23:45:23 10° NNW
USA 238 DEB 3.4 23:34:28 10° SW 23:40:32 82° NW 23:42:20 50° NNE
USA 81 4.3 23:35:24 10° N 23:40:38 66° W 23:45:50 10° S
USA 238 3.4 23:34:34 10° SW 23:40:38 83° NW 23:42:24 51° NNE
Cosmos 2058 Rocket 3.5 23:38:49 10° SSW 23:43:13 62° W 23:43:32 60° WNW
USA 215 3.9 23:44:52 37° NNE 23:44:59 38° NNE 23:50:55 10° NW
Cosmos 2219 3.2 23:42:19 10° NNW 23:47:30 70° N 23:47:30 70° N
BREEZE-M DEB (TANK) 4.2 23:46:04 10° SW 23:52:08 46° S 23:52:08 46° S
Cosmos 1980 Rocket 2.6 23:48:24 10° SW 23:53:59 60° WNW 23:55:10 49° NNW
